| time (UTC) | temp C | wind direction | speed KPH | gust KPH | rain 1hr cm | rain 24hr cm | rain mn cm | humidity % | barometer mb |
| 20260507181533 | 13 | 60 | 0.0 | 0.0 | 0.00 | 0.61 | 0.38 | 75 | 1013.8 |
| 20260507180050 | 13 | 1 | 0.0 | 0.0 | 0.00 | 0.61 | 0.38 | 72 | 1013.7 |
| 20260507174508 | 13 | 359 | 0.0 | 4.8 | 0.00 | 0.69 | 0.38 | 72 | 1013.6 |
| 20260507173024 | 14 | 2 | 0.0 | 0.0 | 0.00 | 0.69 | 0.38 | 71 | 1013.7 |
| 20260507171533 | 14 | 1 | 0.0 | 1.6 | 0.00 | 0.69 | 0.38 | 66 | 1013.7 |
| 20260507170049 | 15 | 11 | 0.0 | 0.0 | 0.00 | 0.69 | 0.38 | 64 | 1013.8 |
| 20260507164558 | 16 | 14 | 0.0 | 1.6 | 0.00 | 1.02 | 0.38 | 58 | 1013.8 |
| 20260507163012 | 17 | 330 | 0.0 | 0.0 | 0.00 | 1.02 | 0.38 | 59 | 1013.8 |
| 20260507161512 | 17 | 28 | 0.0 | 0.0 | 0.00 | 1.02 | 0.38 | 58 | 1013.8 |
| 20260507160030 | 17 | 90 | 0.0 | 1.6 | 0.00 | 1.02 | 0.38 | 55 | 1013.9 |
| 20260507154544 | 17 | 98 | 0.0 | 4.8 | 0.00 | 1.17 | 0.38 | 54 | 1014.0 |
| 20260507153006 | 17 | 350 | 0.0 | 4.8 | 0.00 | 1.17 | 0.38 | 53 | 1013.9 |
| 20260507151517 | 17 | 1 | 0.0 | 6.4 | 0.00 | 1.17 | 0.38 | 52 | 1014.0 |
| 20260507150031 | 17 | 84 | 0.0 | 11.3 | 0.00 | 1.17 | 0.38 | 53 | 1014.1 |
| 20260507144549 | 17 | 65 | 0.0 | 9.7 | 0.00 | 1.27 | 0.38 | 57 | 1014.1 |
| 20260507143054 | 16 | 66 | 0.0 | 1.6 | 0.00 | 1.27 | 0.38 | 56 | 1014.3 |
| 20260507141506 | 17 | 340 | 0.0 | 4.8 | 0.00 | 1.27 | 0.38 | 51 | 1014.4 |
| 20260507140022 | 17 | 4 | 0.0 | 8.0 | 0.00 | 1.27 | 0.38 | 49 | 1014.6 |
| 20260507134534 | 17 | 80 | 1.6 | 9.7 | 0.00 | 1.27 | 0.38 | 55 | 1014.5 |
| 20260507133050 | 17 | 255 | 0.0 | 11.3 | 0.00 | 1.27 | 0.38 | 64 | 1014.7 |
| 20260507131621 | 16 | 99 | 1.6 | 8.0 | 0.00 | 1.27 | 0.38 | 57 | 1014.8 |
| 20260507130016 | 16 | 94 | 0.0 | 4.8 | 0.00 | 1.27 | 0.38 | 62 | 1014.8 |
| 20260507124526 | 16 | 84 | 3.2 | 11.3 | 0.00 | 1.42 | 0.38 | 63 | 1014.8 |
| 20260507123053 | 15 | 218 | 0.0 | 6.4 | 0.00 | 1.42 | 0.38 | 64 | 1014.9 |
| 20260507121551 | 16 | 236 | 0.0 | 1.6 | 0.00 | 1.42 | 0.38 | 66 | 1015.0 |
| 20260507120001 | 16 | 13 | 1.6 | 9.7 | 0.00 | 1.70 | 0.38 | 63 | 1014.9 |
| 20260507114517 | 15 | 118 | 0.0 | 6.4 | 0.00 | 1.70 | 0.38 | 64 | 1014.9 |
| 20260507113047 | 15 | 24 | 0.0 | 9.7 | 0.00 | 1.70 | 0.38 | 64 | 1015.0 |
| 20260507111610 | 15 | 214 | 0.0 | 8.0 | 0.00 | 1.70 | 0.38 | 67 | 1015.0 |
| 20260507110138 | 15 | 94 | 0.0 | 6.4 | 0.00 | 1.70 | 0.38 | 70 | 1015.0 |
| 20260507104602 | 14 | 217 | 0.0 | 6.4 | 0.00 | 2.03 | 0.38 | 66 | 1015.2 |
| 20260507103033 | 15 | 86 | 0.0 | 1.6 | 0.00 | 2.03 | 0.38 | 68 | 1015.1 |
| 20260507101550 | 13 | 190 | 0.0 | 0.0 | 0.00 | 2.03 | 0.38 | 76 | 1015.2 |
| 20260507100059 | 12 | 90 | 0.0 | 1.6 | 0.00 | 2.03 | 0.38 | 78 | 1015.3 |
| 20260507094506 | 12 | 82 | 0.0 | 0.0 | 0.00 | 3.66 | 0.38 | 82 | 1015.3 |
| 20260507093034 | 12 | 30 | 0.0 | 0.0 | 0.00 | 3.66 | 0.38 | 80 | 1015.3 |
| 20260507091532 | 13 | 1 | 0.0 | 4.8 | 0.00 | 3.66 | 0.38 | 78 | 1015.2 |
| 20260507090048 | 14 | 325 | 0.0 | 0.0 | 0.00 | 3.66 | 0.38 | 77 | 1015.1 |
| 20260507084559 | 12 | 88 | 0.0 | 0.0 | 0.00 | 4.09 | 0.38 | 81 | 1015.2 |
| 20260507083033 | 11 | 88 | 0.0 | 0.0 | 0.00 | 4.09 | 0.38 | 88 | 1015.2 |
| 20260507081548 | 11 | 134 | 0.0 | 1.6 | 0.00 | 4.09 | 0.38 | 86 | 1015.1 |
| 20260507080136 | 12 | 16 | 0.0 | 4.8 | 0.00 | 4.09 | 0.38 | 86 | 1014.9 |
| 20260507074524 | 11 | 39 | 0.0 | 0.0 | 0.00 | 4.11 | 0.38 | 86 | 1014.9 |
| 20260507073029 | 12 | 124 | 0.0 | 0.0 | 0.00 | 4.11 | 0.38 | 86 | 1014.9 |
| 20260507071602 | 12 | 124 | 0.0 | 1.6 | 0.00 | 4.11 | 0.38 | 86 | 1014.8 |
| 20260507070008 | 12 | 248 | 0.0 | 1.6 | 0.00 | 4.11 | 0.38 | 91 | 1014.8 |
| 20260507064518 | 11 | 248 | 0.0 | 1.6 | 0.00 | 4.11 | 0.38 | 93 | 1014.7 |
| 20260507063035 | 10 | 248 | 0.0 | 0.0 | 0.00 | 4.11 | 0.38 | 94 | 1014.7 |
| 20260507061546 | 10 | 248 | 0.0 | 0.0 | 0.00 | 4.11 | 0.38 | 94 | 1014.6 |
| 20260507060100 | 10 | 248 | 0.0 | 0.0 | 0.00 | 4.11 | 0.38 | 94 | 1014.5 |
| 20260507054508 | 10 | 248 | 0.0 | 0.0 | 0.00 | 4.11 | 0.38 | 94 | 1014.4 |
| 20260507053030 | 9 | 248 | 0.0 | 1.6 | 0.00 | 4.11 | 0.38 | 94 | 1014.4 |
| 20260507051546 | 9 | 248 | 0.0 | 0.0 | 0.00 | 4.11 | 0.38 | 94 | 1014.2 |
| 20260507050055 | 9 | 248 | 0.0 | 0.0 | 0.00 | 4.11 | 0.38 | 94 | 1014.1 |
| 20260507044522 | 9 | 248 | 0.0 | 0.0 | 0.00 | 4.11 | 0.38 | 94 | 1014.0 |
| 20260507043040 | 9 | 248 | 0.0 | 0.0 | 0.00 | 4.11 | 0.38 | 94 | 1013.9 |
| 20260507041559 | 9 | 248 | 0.0 | 0.0 | 0.00 | 4.11 | 0.38 | 94 | 1013.9 |
| 20260507040004 | 9 | 248 | 0.0 | 0.0 | 0.00 | 4.11 | 0.38 | 94 | 1013.9 |
| 20260507034518 | 9 | 248 | 0.0 | 0.0 | 0.00 | 4.11 | 0.38 | 94 | 1013.8 |
| 20260507033034 | 9 | 248 | 0.0 | 0.0 | 0.00 | 4.11 | 0.38 | 94 | 1013.7 |
| 20260507031632 | 9 | 248 | 0.0 | 0.0 | 0.00 | 4.11 | 0.38 | 94 | 1013.6 |
| 20260507030005 | 9 | 248 | 0.0 | 0.0 | 0.05 | 4.11 | 0.38 | 94 | 1013.5 |
| 20260507024520 | 9 | 248 | 0.0 | 0.0 | 0.05 | 4.11 | 0.38 | 94 | 1013.5 |
| 20260507023053 | 9 | 248 | 0.0 | 0.0 | 0.08 | 4.11 | 0.38 | 94 | 1013.5 |
| 20260507021518 | 9 | 248 | 0.0 | 0.0 | 0.15 | 4.11 | 0.38 | 94 | 1013.4 |
| 20260507020035 | 8 | 248 | 0.0 | 0.0 | 0.10 | 4.09 | 0.33 | 94 | 1013.3 |
| 20260507014609 | 8 | 248 | 0.0 | 0.0 | 0.08 | 4.06 | 0.33 | 94 | 1013.3 |
| 20260507013032 | 8 | 248 | 0.0 | 0.0 | 0.05 | 4.04 | 0.30 | 94 | 1013.2 |
| 20260507011532 | 8 | 248 | 0.0 | 0.0 | 0.05 | 3.99 | 0.23 | 94 | 1013.2 |
| 20260507010031 | 9 | 248 | 0.0 | 0.0 | 0.05 | 3.99 | 0.23 | 94 | 1013.2 |
| 20260507004543 | 9 | 248 | 0.0 | 0.0 | 0.05 | 3.99 | 0.23 | 94 | 1013.1 |
| 20260507003100 | 9 | 248 | 0.0 | 0.0 | 0.08 | 3.99 | 0.23 | 94 | 1013.1 |
| 20260507001507 | 9 | 248 | 0.0 | 0.0 | 0.10 | 3.94 | 0.20 | 94 | 1013.0 |
| 20260507000039 | 9 | 248 | 0.0 | 0.0 | 0.13 | 3.91 | 0.18 | 94 | 1012.9 |
| 20260506234549 | 9 | 248 | 0.0 | 0.0 | 0.15 | 3.91 | 0.18 | 94 | 1012.9 |
| 20260506233003 | 8 | 248 | 0.0 | 0.0 | 0.15 | 3.91 | 0.15 | 93 | 1013.0 |
| 20260506231519 | 9 | 248 | 0.0 | 0.0 | 0.10 | 3.84 | 0.10 | 93 | 1012.9 |
| 20260506230028 | 8 | 248 | 0.0 | 0.0 | 0.05 | 3.81 | 0.05 | 93 | 1012.9 |
| 20260506224553 | 8 | 248 | 0.0 | 0.0 | 0.05 | 3.76 | 0.03 | 93 | 1012.8 |
| 20260506223011 | 9 | 248 | 0.0 | 0.0 | 0.05 | 3.76 | 0.03 | 93 | 1012.7 |
| 20260506221523 | 9 | 248 | 0.0 | 0.0 | 0.03 | 3.73 | 0.00 | 93 | 1012.6 |
| 20260506220108 | 9 | 248 | 0.0 | 0.0 | 0.03 | 3.73 | 0.00 | 93 | 1012.5 |
| 20260506214511 | 8 | 248 | 0.0 | 0.0 | 0.00 | 3.71 | 3.71 | 93 | 1012.4 |
| 20260506213023 | 8 | 248 | 0.0 | 0.0 | 0.00 | 3.71 | 3.71 | 93 | 1012.4 |
| 20260506211548 | 8 | 248 | 0.0 | 0.0 | 0.00 | 3.71 | 3.71 | 93 | 1012.4 |
| 20260506210005 | 8 | 248 | 0.0 | 0.0 | 0.03 | 3.71 | 3.71 | 93 | 1012.3 |
| 20260506204528 | 8 | 248 | 0.0 | 0.0 | 0.05 | 3.71 | 3.71 | 93 | 1012.3 |
| 20260506203121 | 8 | 248 | 0.0 | 0.0 | 0.05 | 3.71 | 3.71 | 93 | 1012.1 |
| 20260506201600 | 8 | 248 | 0.0 | 0.0 | 0.08 | 3.71 | 3.71 | 93 | 1012.1 |
| 20260506200012 | 8 | 248 | 0.0 | 0.0 | 0.10 | 3.71 | 3.71 | 93 | 1012.0 |
| 20260506194526 | 8 | 248 | 0.0 | 0.0 | 0.13 | 3.68 | 3.68 | 92 | 1011.8 |
| 20260506193036 | 8 | 248 | 0.0 | 0.0 | 0.13 | 3.66 | 3.66 | 93 | 1011.7 |
| 20260506191559 | 8 | 248 | 0.0 | 0.0 | 0.10 | 3.63 | 3.63 | 93 | 1011.5 |
| 20260506190025 | 9 | 248 | 0.0 | 0.0 | 0.08 | 3.61 | 3.61 | 92 | 1011.5 |
| 20260506184541 | 9 | 248 | 0.0 | 0.0 | 0.05 | 3.56 | 3.56 | 92 | 1011.3 |
| 20260506183049 | 9 | 248 | 0.0 | 1.6 | 0.05 | 3.53 | 3.53 | 92 | 1011.2 |